RH
36 31 30 31 33 37 35 35 33 29 26 21 19 15 16 25 24 24 25 26 26 21 21 24 31 30 29 29 30 29 29 23 20 19 15 15 15 12 14 19 12 18 18
34 32 32 35 33 35 37 37 35 29 26 20 15 13 18 22 24 25 24 25 21 21 18 23 27 27 30 30 29 29 25 19 19 16 16 15 14 18 17 18 14 19 20
37 35 35 37 36 38 41 40 35 28 24 19 14 17 18 19 21 21 20 20 21 20 18 15 22 22 22 21 24 29 24 19 18 16 14 17 20 20 20 18 17 19 22
39 39 37 39 38 41 46 37 31 24 22 18 15 20 23 24 26 26 23 20 19 19 17 16 15 14 16 19 21 23 22 22 19 18 15 19 22 23 22 21 18 19 23
42 45 44 39 40 42 40 39 35 32 24 19 15 18 26 27 28 30 30 24 21 20 19 17 17 15 13 16 17 19 18 21 21 18 18 21 19 23 23 22 19 17 21
42 45 42 39 43 42 40 40 39 34 34 28 18 20 24 26 27 29 30 30 23 21 19 17 16 16 16 15 15 13 12 13 13 14 17 21 20 17 21 22 20 17 16
47 46 41 36 41 41 41 42 41 40 38 36 29 29 24 26 26 28 28 29 22 17 16 14 12 12 14 16 16 15 11 9 9 10 10 14 17 17 14 14 14 15 15
47 44 40 38 39 41 40 42 42 43 42 40 34 32 33 32 33 32 36 29 21 15 13 12 13 13 13 14 15 16 15 15 14 13 13 13 14 15 14 13 13 13 14
48 45 42 42 42 39 38 38 41 42 42 41 36 32 31 34 37 39 34 27 21 20 19 18 17 18 18 19 19 20 19 19 19 20 18 17 16 16 15 14 14 15 15
49 46 47 46 44 39 38 37 38 38 36 34 31 29 28 30 32 31 31 29 28 27 26 26 26 25 23 23 24 24 24 25 24 23 23 23 23 22 21 18 16 15 15
47 49 51 50 49 44 40 41 39 32 30 29 27 25 23 26 29 29 29 28 28 28 28 28 28 28 28 28 28 29 28 27 26 26 24 24 23 22 21 21 20 19 16
49 49 50 51 50 47 44 42 38 33 31 30 29 29 27 28 28 29 28 30 30 30 30 31 31 31 32 32 32 32 32 32 31 30 30 30 29 30 29 28 26 25 24
52 53 52 52 52 48 45 42 42 39 34 33 34 34 33 31 31 31 32 32 31 32 33 33 35 35 36 36 37 36 36 34 34 34 35 34 34 36 36 36 36 37 35
54 52 52 51 51 50 47 43 44 42 38 37 37 37 36 36 37 37 38 38 38 38 40 41 43 44 44 43 42 41 40 41 41 41 40 41 40 41 41 42 41 41 41
51 50 50 51 50 48 48 46 45 45 44 40 39 42 40 40 40 40 43 46 51 49 49 48 46 45 45 43 42 39 37 37 40 41 42 40 39 38 38 38 38 37 37
50 48 48 49 50 47 46 45 45 46 47 44 41 43 43 43 43 44 48 50 49 49 49 47 45 39 34 32 31 32 34 35 36 37 38 36 35 35 34 33 31 29 30
46 44 44 47 48 46 45 46 47 46 47 45 45 47 46 46 44 47 49 49 45 45 42 38 33 31 30 31 33 35 39 38 34 31 30 27 30 33 35 35 34 38 37
38 37 40 41 42 42 42 46 47 47 47 48 46 46 47 47 46 46 43 38 36 36 34 33 33 33 33 33 32 31 28 26 24 24 26 31 35 39 42 42 45 39 38
35 33 37 37 36 40 44 47 48 50 47 42 45 49 48 46 43 37 33 33 34 33 34 34 34 33 29 25 25 22 21 22 20 24 26 27 30 35 34 33 40 34 33
34 34 36 37 40 41 43 44 45 45 43 44 47 47 43 39 36 34 33 31 33 35 35 32 27 23 19 20 17 18 16 18 18 21 24 25 27 29 30 29 27 25 27
37 36 37 37 37 37 38 39 41 40 43 46 43 39 36 36 34 31 31 34 36 33 27 23 18 17 17 17 18 15 15 16 17 18 17 16 15 15 18 21 24 24 24
37 38 38 37 36 37 36 37 40 40 40 39 35 35 34 33 34 35 35 34 27 23 20 18 17 17 16 16 18 17 18 16 17 15 19 15 17 18 15 11 12 13 14
36 36 36 35 35 36 35 34 37 38 36 34 36 38 38 37 35 33 31 26 21 18 17 17 17 17 16 17 17 19 20 21 17 16 13 15 11 12 10 10 11 13 13
36 35 33 34 34 32 29 31 33 35 38 40 40 38 37 34 33 31 25 23 21 19 18 18 17 17 17 17 18 17 16 17 18 18 16 14 13 13 13 16 14 19 18
36 35 34 33 32 32 34 36 38 40 42 41 39 37 35 33 29 26 26 25 24 21 19 19 18 18 18 18 19 17 17 17 15 16 17 16 15 15 16 17 18 12 12
37 36 34 35 36 37 38 40 42 41 41 40 40 39 36 30 28 30 30 29 25 22 21 20 20 20 19 18 18 18 18 18 17 18 18 16 18 16 18 15 16 13 19